Zapata, TX

5:33 AM CST on February 24, 2017 (GMT -0600)
Zapata

Weather History for KAPY - April, 2013

Change the Weather History Date:

Tuesday, April 23, 2013

  Actual Average (KLRD) Record (KLRD)
Temperature  
Mean Temperature 82 °F -  
Max Temperature 93 °F 85 °F 109 °F (1958)
Min Temperature 71 °F 63 °F 47 °F (1907)
Cooling Degree Days 17    
Growing Degree Days 32 (Base 50)    
Moisture  
Dew Point 62 °F    
Average Humidity 57    
Maximum Humidity 75    
Minimum Humidity 30    
Precipitation  
Precipitation 0.00 in - - ()
Sea Level Pressure  
Sea Level Pressure 29.81 in    
Wind  
Wind Speed 13 mph (SE)    
Max Wind Speed 20 mph    
Max Gust Speed 28 mph    
Visibility 10 miles    
Events      
Averages and records for this station are not official NWS values.
T = Trace of Precipitation, MM = Missing Value Source: NWS Daily Summary

Daily Weather History Graph

Daily Weather History Graph

Search for Another Location

Airport or City:

Trip Planner

Search our weather history database for the weather conditions in past years. The results will help you decide how hot, cold, wet, or windy it might be!

Date:

Astronomy

Apr. 23, 2013 Rise Set
Actual Time 7:05 AM CDT 8:05 PM CDT
Civil Twilight 6:40 AM CDT 8:29 PM CDT
Nautical Twilight 6:12 AM CDT 8:58 PM CDT
Astronomical Twilight 5:43 AM CDT 9:27 PM CDT
Moon 6:11 PM CDT (4/23) 5:21 AM CDT (4/23)
Length of Visible Light 13h 48m
Length of Day
13h 00m
Waxing Gibbous, 94% of the Moon is Illuminated
Apr 23
Waxing Gibbous
Apr 25
Full
May 2
Last Quarter
May 9
New
May 17
First Quarter

Hourly Weather History & Observations

Time (CDT) Temp. Heat Index Dew Point Humidity Pressure Visibility Wind Dir Wind Speed Gust Speed Precip Events Conditions
12:15 AM 74.1 °F - 60.1 °F 61% 29.90 in 10.0 mi SE 11.5 mph 20.7 mph N/A   Clear
12:35 AM 73.4 °F - 60.8 °F 65% 29.90 in 10.0 mi SE 11.5 mph 21.9 mph N/A   Clear
12:55 AM 72.5 °F - 61.3 °F 68% 29.90 in 10.0 mi SE 11.5 mph 20.7 mph N/A   Clear
1:15 AM 72.1 °F - 62.6 °F 72% 29.89 in 10.0 mi SE 12.7 mph 19.6 mph N/A   Scattered Clouds
1:35 AM 72.5 °F - 62.6 °F 71% 29.89 in 10.0 mi SE 10.4 mph 19.6 mph N/A   Overcast
1:55 AM 72.5 °F - 62.8 °F 71% 29.88 in 10.0 mi SE 13.8 mph 21.9 mph N/A   Overcast
2:15 AM 72.7 °F - 62.8 °F 71% 29.87 in 10.0 mi SE 10.4 mph 20.7 mph N/A   Overcast
2:35 AM 72.5 °F - 62.8 °F 71% 29.85 in 10.0 mi SE 11.5 mph 24.2 mph N/A   Overcast
2:55 AM 72.7 °F - 62.8 °F 71% 29.85 in 10.0 mi SE 15.0 mph 24.2 mph N/A   Overcast
3:15 AM 72.9 °F - 62.6 °F 70% 29.84 in 10.0 mi SE 19.6 mph 27.6 mph N/A   Overcast
3:35 AM 72.9 °F - 62.6 °F 70% 29.83 in 10.0 mi SE 15.0 mph 20.7 mph N/A   Overcast
3:55 AM 72.7 °F - 62.6 °F 71% 29.82 in 10.0 mi SSE 13.8 mph 23.0 mph N/A   Overcast
4:15 AM 72.9 °F - 62.8 °F 71% 29.82 in 10.0 mi SE 11.5 mph 17.3 mph N/A   Overcast
4:35 AM 73.0 °F - 62.8 °F 70% 29.81 in 10.0 mi SE 15.0 mph 19.6 mph N/A   Overcast
4:55 AM 72.7 °F - 62.8 °F 71% 29.81 in 10.0 mi SE 11.5 mph 16.1 mph N/A   Overcast
5:15 AM 72.1 °F - 63.0 °F 73% 29.81 in 10.0 mi SE 10.4 mph 16.1 mph N/A   Overcast
5:35 AM 71.8 °F - 63.1 °F 74% 29.80 in 10.0 mi SE 10.4 mph 19.6 mph N/A   Mostly Cloudy
5:55 AM 71.4 °F - 63.1 °F 75% 29.80 in 10.0 mi SE 8.1 mph - N/A   Scattered Clouds
6:15 AM 71.2 °F - 63.0 °F 75% 29.80 in 10.0 mi SE 10.4 mph 16.1 mph N/A   Scattered Clouds
6:35 AM 71.1 °F - 62.6 °F 75% 29.79 in 10.0 mi SE 10.4 mph 16.1 mph N/A   Clear
6:55 AM 71.1 °F - 62.6 °F 75% 29.80 in 10.0 mi SE 6.9 mph - N/A   Clear
7:15 AM 71.1 °F - 62.2 °F 74% 29.80 in 10.0 mi SE 10.4 mph - N/A   Scattered Clouds
7:35 AM 71.6 °F - 62.4 °F 73% 29.82 in 10.0 mi SE 9.2 mph - N/A   Mostly Cloudy
7:55 AM 71.8 °F - 62.6 °F 73% 29.83 in 10.0 mi SE 10.4 mph - N/A   Overcast
8:15 AM 72.7 °F - 62.6 °F 71% 29.83 in 10.0 mi SE 9.2 mph 16.1 mph N/A   Overcast
8:35 AM 73.0 °F - 62.8 °F 70% 29.83 in 10.0 mi SE 10.4 mph 19.6 mph N/A   Overcast
8:55 AM 73.9 °F - 62.8 °F 68% 29.83 in 10.0 mi SE 11.5 mph 17.3 mph N/A   Overcast
9:15 AM 74.5 °F - 62.8 °F 67% 29.83 in 10.0 mi SE 15.0 mph 19.6 mph N/A   Overcast
9:35 AM 75.2 °F - 62.6 °F 65% 29.83 in 10.0 mi SE 11.5 mph 19.6 mph N/A   Overcast
9:55 AM 76.1 °F - 62.6 °F 63% 29.84 in 10.0 mi SE 15.0 mph 19.6 mph N/A   Overcast
10:15 AM 77.4 °F - 62.6 °F 60% 29.84 in 10.0 mi SE 9.2 mph 23.0 mph N/A   Overcast
10:35 AM 78.4 °F - 62.1 °F 57% 29.84 in 10.0 mi SE 15.0 mph 24.2 mph N/A   Overcast
10:55 AM 79.5 °F - 62.2 °F 55% 29.84 in 10.0 mi SE 15.0 mph 20.7 mph N/A   Overcast
11:15 AM 81.0 °F 81.9 °F 61.7 °F 52% 29.83 in 10.0 mi SE 16.1 mph 23.0 mph N/A   Overcast
11:35 AM 81.7 °F 82.4 °F 61.5 °F 50% 29.83 in 10.0 mi SE 13.8 mph 24.2 mph N/A   Overcast
11:55 AM 82.4 °F 82.9 °F 61.0 °F 48% 29.83 in 10.0 mi SSE 15.0 mph 24.2 mph N/A   Overcast
12:15 PM 83.3 °F 83.5 °F 60.6 °F 46% 29.82 in 10.0 mi SE 17.3 mph 24.2 mph N/A   Overcast
12:35 PM 85.1 °F 85.0 °F 60.1 °F 43% 29.80 in 10.0 mi SSE 15.0 mph 24.2 mph N/A   Mostly Cloudy
12:55 PM 86.4 °F 85.9 °F 59.2 °F 40% 29.80 in 10.0 mi SE 17.3 mph 24.2 mph N/A   Mostly Cloudy
1:15 PM 86.2 °F 85.9 °F 59.9 °F 41% 29.79 in 10.0 mi SE 13.8 mph 24.2 mph N/A   Mostly Cloudy
1:35 PM 87.3 °F 86.7 °F 59.5 °F 39% 29.78 in 10.0 mi SE 16.1 mph 24.2 mph N/A   Mostly Cloudy
1:55 PM 89.1 °F 88.2 °F 59.0 °F 36% 29.77 in 10.0 mi ESE 11.5 mph 23.0 mph N/A   Mostly Cloudy
2:15 PM 88.3 °F 87.6 °F 59.2 °F 37% 29.76 in 10.0 mi ESE 15.0 mph 23.0 mph N/A   Mostly Cloudy
2:35 PM 90.0 °F 89.1 °F 59.2 °F 35% 29.75 in 10.0 mi SE 11.5 mph 18.4 mph N/A   Mostly Cloudy
2:55 PM 90.7 °F 89.8 °F 58.5 °F 34% 29.75 in 10.0 mi SSE 12.7 mph 20.7 mph N/A   Scattered Clouds
3:15 PM 91.9 °F 90.8 °F 57.7 °F 32% 29.74 in 10.0 mi ESE 11.5 mph 20.7 mph N/A   Scattered Clouds
3:35 PM 91.4 °F 90.1 °F 57.7 °F 32% 29.73 in 10.0 mi SE 9.2 mph 20.7 mph N/A   Scattered Clouds
3:55 PM 93.6 °F 92.4 °F 57.6 °F 30% 29.73 in 10.0 mi SE 11.5 mph 17.3 mph N/A   Scattered Clouds
4:15 PM 92.7 °F 91.5 °F 57.9 °F 31% 29.73 in 10.0 mi SSE 10.4 mph - N/A   Mostly Cloudy
4:35 PM 91.6 °F 90.7 °F 58.5 °F 33% 29.73 in 10.0 mi ESE 9.2 mph 19.6 mph N/A   Mostly Cloudy
4:55 PM 91.4 °F 90.4 °F 58.8 °F 33% 29.72 in 10.0 mi East 16.1 mph 20.7 mph N/A   Mostly Cloudy
5:15 PM 90.0 °F 89.4 °F 59.5 °F 36% 29.72 in 10.0 mi ESE 16.1 mph 20.7 mph N/A   Mostly Cloudy
5:35 PM 90.7 °F 90.1 °F 59.7 °F 35% 29.72 in 10.0 mi ESE 15.0 mph 24.2 mph N/A   Mostly Cloudy
5:55 PM 89.1 °F 88.8 °F 60.1 °F 38% 29.72 in 10.0 mi ESE 13.8 mph 20.7 mph N/A   Scattered Clouds
6:15 PM 88.3 °F 88.1 °F 60.8 °F 39% 29.73 in 10.0 mi SE 13.8 mph 20.7 mph N/A   Scattered Clouds
6:35 PM 87.1 °F 87.0 °F 61.0 °F 41% 29.74 in 10.0 mi ESE 15.0 mph 18.4 mph N/A   Clear
6:55 PM 86.0 °F 86.1 °F 61.2 °F 43% 29.74 in 10.0 mi SE 12.7 mph 18.4 mph N/A   Clear
7:15 PM 85.3 °F 85.7 °F 61.7 °F 45% 29.75 in 10.0 mi ESE 15.0 mph 19.6 mph N/A   Clear
7:35 PM 84.4 °F 85.0 °F 62.4 °F 47% 29.76 in 10.0 mi ESE 15.0 mph 19.6 mph N/A   Clear
7:55 PM 83.3 °F 84.3 °F 62.8 °F 50% 29.77 in 10.0 mi ESE 15.0 mph 21.9 mph N/A   Clear
8:15 PM 82.4 °F 83.5 °F 63.1 °F 52% 29.78 in 10.0 mi ESE 15.0 mph 20.7 mph N/A   Clear
8:35 PM 81.5 °F 82.8 °F 63.5 °F 54% 29.79 in 10.0 mi ESE 13.8 mph 20.7 mph N/A   Clear
8:55 PM 80.8 °F 82.4 °F 64.2 °F 57% 29.81 in 10.0 mi ESE 17.3 mph 20.7 mph N/A   Clear
9:15 PM 80.1 °F 81.8 °F 64.4 °F 59% 29.82 in 10.0 mi ESE 17.3 mph 23.0 mph N/A   Scattered Clouds
9:35 PM 79.7 °F - 64.6 °F 60% 29.84 in 10.0 mi ESE 17.3 mph 25.3 mph N/A   Mostly Cloudy
9:55 PM 79.2 °F - 64.8 °F 61% 29.85 in 10.0 mi ESE 12.7 mph 20.7 mph N/A   Overcast
10:15 PM 79.0 °F - 65.3 °F 63% 29.87 in 10.0 mi SE 12.7 mph 20.7 mph N/A   Overcast
10:35 PM 78.8 °F - 65.3 °F 63% 29.87 in 10.0 mi ESE 11.5 mph 20.7 mph N/A   Overcast
10:55 PM 78.3 °F - 65.3 °F 64% 29.87 in 10.0 mi SE 15.0 mph 19.6 mph N/A   Overcast
11:15 PM 78.3 °F - 65.5 °F 65% 29.89 in 10.0 mi SE 16.1 mph 19.6 mph N/A   Overcast
11:35 PM 77.9 °F - 65.5 °F 65% 29.90 in 10.0 mi SE 6.9 mph - N/A   Overcast
11:55 PM 77.5 °F - 65.7 °F 67% 29.91 in 10.0 mi ESE 10.4 mph - N/A   Overcast